Location: Bakov nad Jizerou
(50.4784°N, 14.9394°E)
Time: 17:24:41
(UTC+00:00)

Cosmos 2322 - Pass Details

Date: 31 October 2021
Orbit: 841 x 854 km, 71.0° (Epoch: 04 December)

Event Time Altitude Azimuth Distance (km) Brightness Sun altitude
Rises 18:56:38 0° 246° (WSW) 3,418 7.5 -31.9°
Reaches altitude 10° 18:59:25 10° 257° (WSW) 2,485 6.8 -32.4°
Maximum altitude 19:04:19 29° 317° (NW) 1,529 5.4 -33.1°
Enters shadow 19:07:20 19° 2° (N) 1,946 5.7 -33.5°
